Year,Month,Day,Hour,Minute,Value (Times are PST for temperature in C)
2013,07,13,00,00,12.50
2013,07,13,00,01,12.50
2013,07,13,00,02,12.50
2013,07,13,00,03,12.50
2013,07,13,00,04,12.50
2013,07,13,00,05,12.50
2013,07,13,00,06,12.40
2013,07,13,00,07,12.40
2013,07,13,00,08,12.40
2013,07,13,00,09,12.40
2013,07,13,00,10,12.40
2013,07,13,00,11,12.40
2013,07,13,00,12,12.40
2013,07,13,00,13,12.40
2013,07,13,00,14,12.40
2013,07,13,00,15,12.30
2013,07,13,00,16,12.30
2013,07,13,00,17,12.30
2013,07,13,00,18,12.30
2013,07,13,00,19,12.30
2013,07,13,00,20,12.30
2013,07,13,00,21,12.30
2013,07,13,00,22,12.30
2013,07,13,00,23,12.30
2013,07,13,00,24,12.30
2013,07,13,00,25,12.30
2013,07,13,00,26,12.30
2013,07,13,00,27,12.30
2013,07,13,00,28,12.30
2013,07,13,00,29,12.30
2013,07,13,00,30,12.20
2013,07,13,00,31,12.20
2013,07,13,00,32,12.20
2013,07,13,00,33,12.20
2013,07,13,00,34,12.20
2013,07,13,00,35,12.20
2013,07,13,00,36,12.10
2013,07,13,00,37,12.10
2013,07,13,00,38,12.10
2013,07,13,00,39,12.10
2013,07,13,00,40,12.10
2013,07,13,00,41,12.10
2013,07,13,00,42,12.10
2013,07,13,00,43,12.10
2013,07,13,00,44,12.00
2013,07,13,00,45,12.00
2013,07,13,00,46,12.00
2013,07,13,00,47,12.00
2013,07,13,00,48,12.00
2013,07,13,00,49,12.00
2013,07,13,00,50,11.90
2013,07,13,00,51,11.90
2013,07,13,00,52,11.90
2013,07,13,00,53,11.90
2013,07,13,00,54,11.90
2013,07,13,00,55,11.90
2013,07,13,00,56,11.90
2013,07,13,00,57,11.90
2013,07,13,00,58,11.90
2013,07,13,00,59,11.90
2013,07,13,01,00,11.80
2013,07,13,01,01,11.80
2013,07,13,01,02,11.80
2013,07,13,01,03,11.80
2013,07,13,01,04,11.80
2013,07,13,01,05,11.80
2013,07,13,01,06,11.80
2013,07,13,01,07,11.80
2013,07,13,01,08,11.70
2013,07,13,01,09,11.70
2013,07,13,01,10,11.70
2013,07,13,01,11,11.70
2013,07,13,01,12,11.70
2013,07,13,01,13,11.70
2013,07,13,01,14,11.70
2013,07,13,01,15,11.70
2013,07,13,01,16,11.70
2013,07,13,01,17,11.70
2013,07,13,01,18,11.70
2013,07,13,01,19,11.70
2013,07,13,01,20,11.70
2013,07,13,01,21,11.70
2013,07,13,01,22,11.70
2013,07,13,01,23,11.70
2013,07,13,01,24,11.70
2013,07,13,01,25,11.70
2013,07,13,01,26,11.70
2013,07,13,01,27,11.70
2013,07,13,01,28,11.60
2013,07,13,01,29,11.60
2013,07,13,01,30,11.60
2013,07,13,01,31,11.60
2013,07,13,01,32,11.60
2013,07,13,01,33,11.60
2013,07,13,01,34,11.60
2013,07,13,01,35,11.60
2013,07,13,01,36,11.50
2013,07,13,01,37,11.50
2013,07,13,01,38,11.50
2013,07,13,01,39,11.50
2013,07,13,01,40,11.40
2013,07,13,01,41,11.40
2013,07,13,01,42,11.40
2013,07,13,01,43,11.40
2013,07,13,01,44,11.40
2013,07,13,01,45,11.40
2013,07,13,01,46,11.40
2013,07,13,01,47,11.30
2013,07,13,01,48,11.30
2013,07,13,01,49,11.30
2013,07,13,01,50,11.30
2013,07,13,01,51,11.30
2013,07,13,01,52,11.30
2013,07,13,01,53,11.30
2013,07,13,01,54,11.20
2013,07,13,01,55,11.20
2013,07,13,01,56,11.20
2013,07,13,01,57,11.20
2013,07,13,01,58,11.20
2013,07,13,01,59,11.20
2013,07,13,02,00,11.20
2013,07,13,02,01,11.20
2013,07,13,02,02,11.20
2013,07,13,02,03,11.20
2013,07,13,02,04,11.20
2013,07,13,02,05,11.10
2013,07,13,02,06,11.10
2013,07,13,02,07,11.10
2013,07,13,02,08,11.10
2013,07,13,02,09,11.10
2013,07,13,02,10,11.10
2013,07,13,02,11,11.10
2013,07,13,02,12,11.10
2013,07,13,02,13,11.10
2013,07,13,02,14,11.10
2013,07,13,02,15,11.10
2013,07,13,02,16,11.10
2013,07,13,02,17,11.10
2013,07,13,02,18,11.10
2013,07,13,02,19,11.10
2013,07,13,02,20,11.10
2013,07,13,02,21,11.00
2013,07,13,02,22,11.00
2013,07,13,02,23,11.00
2013,07,13,02,24,11.00
2013,07,13,02,25,11.00
2013,07,13,02,26,11.00
2013,07,13,02,27,11.00
2013,07,13,02,28,11.00
2013,07,13,02,29,10.90
2013,07,13,02,30,10.90
2013,07,13,02,31,10.90
2013,07,13,02,32,10.90
2013,07,13,02,33,10.90
2013,07,13,02,34,10.90
2013,07,13,02,35,10.90
2013,07,13,02,36,10.90
2013,07,13,02,37,10.90
2013,07,13,02,38,10.90
2013,07,13,02,39,10.90
2013,07,13,02,40,10.80
2013,07,13,02,41,10.80
2013,07,13,02,42,10.80
2013,07,13,02,43,10.80
2013,07,13,02,44,10.80
2013,07,13,02,45,10.80
2013,07,13,02,46,10.80
2013,07,13,02,47,10.80
2013,07,13,02,48,10.80
2013,07,13,02,49,10.80
2013,07,13,02,50,10.80
2013,07,13,02,51,10.80
2013,07,13,02,52,10.70
2013,07,13,02,53,10.70
2013,07,13,02,54,10.70
2013,07,13,02,55,10.70
2013,07,13,02,56,10.70
2013,07,13,02,57,10.70
2013,07,13,02,58,10.70
2013,07,13,02,59,10.70
2013,07,13,03,00,10.70
2013,07,13,03,01,10.70
2013,07,13,03,02,10.70
2013,07,13,03,03,10.60
2013,07,13,03,04,10.60
2013,07,13,03,05,10.60
2013,07,13,03,06,10.50
2013,07,13,03,07,10.50
2013,07,13,03,08,10.50
2013,07,13,03,09,10.50
2013,07,13,03,10,10.40
2013,07,13,03,11,10.40
2013,07,13,03,12,10.40
2013,07,13,03,13,10.40
2013,07,13,03,14,10.40
2013,07,13,03,15,10.40
2013,07,13,03,16,10.40
2013,07,13,03,17,10.40
2013,07,13,03,18,10.40
2013,07,13,03,19,10.40
2013,07,13,03,20,10.40
2013,07,13,03,21,10.40
2013,07,13,03,22,10.40
2013,07,13,03,23,10.30
2013,07,13,03,24,10.30
2013,07,13,03,25,10.30
2013,07,13,03,26,10.30
2013,07,13,03,27,10.30
2013,07,13,03,28,10.30
2013,07,13,03,29,10.30
2013,07,13,03,30,10.30
2013,07,13,03,31,10.30
2013,07,13,03,32,10.30
2013,07,13,03,33,10.30
2013,07,13,03,34,10.30
2013,07,13,03,35,10.30
2013,07,13,03,36,10.30
2013,07,13,03,37,10.30
2013,07,13,03,38,10.30
2013,07,13,03,39,10.30
2013,07,13,03,40,10.30
2013,07,13,03,41,10.30
2013,07,13,03,42,10.30
2013,07,13,03,43,10.30
2013,07,13,03,44,10.20
2013,07,13,03,45,10.30
2013,07,13,03,46,10.20
2013,07,13,03,47,10.20
2013,07,13,03,48,10.20
2013,07,13,03,49,10.20
2013,07,13,03,50,10.20
2013,07,13,03,51,10.20
2013,07,13,03,52,10.20
2013,07,13,03,53,10.20
2013,07,13,03,54,10.20
2013,07,13,03,55,10.20
2013,07,13,03,56,10.20
2013,07,13,03,57,10.20
2013,07,13,03,58,10.20
2013,07,13,03,59,10.10
2013,07,13,04,00,10.10
2013,07,13,04,01,10.10
2013,07,13,04,02,10.10
2013,07,13,04,03,10.10
2013,07,13,04,04,10.10
2013,07,13,04,05,10.10
2013,07,13,04,06,10.10
2013,07,13,04,07,10.10
2013,07,13,04,08,10.10
2013,07,13,04,09,10.10
2013,07,13,04,10,10.10
2013,07,13,04,11,10.10
2013,07,13,04,12,10.00
2013,07,13,04,13,10.00
2013,07,13,04,14,10.00
2013,07,13,04,15,10.00
2013,07,13,04,16,10.00
2013,07,13,04,17,10.00
2013,07,13,04,18,10.00
2013,07,13,04,19,10.00
2013,07,13,04,20,9.90
2013,07,13,04,21,9.90
2013,07,13,04,22,9.90
2013,07,13,04,23,9.90
2013,07,13,04,24,9.90
2013,07,13,04,25,9.90
2013,07,13,04,26,9.90
2013,07,13,04,27,9.90
2013,07,13,04,28,9.80
2013,07,13,04,29,9.80
2013,07,13,04,30,9.80
2013,07,13,04,31,9.80
2013,07,13,04,32,9.80
2013,07,13,04,33,9.80
2013,07,13,04,34,9.80
2013,07,13,04,35,9.70
2013,07,13,04,36,9.70
2013,07,13,04,37,9.70
2013,07,13,04,38,9.70
2013,07,13,04,39,9.70
2013,07,13,04,40,9.60
2013,07,13,04,41,9.60
2013,07,13,04,42,9.60
2013,07,13,04,43,9.60
2013,07,13,04,44,9.60
2013,07,13,04,45,9.60
2013,07,13,04,46,9.60
2013,07,13,04,47,9.60
2013,07,13,04,48,9.60
2013,07,13,04,49,9.60
2013,07,13,04,50,9.60
2013,07,13,04,51,9.50
2013,07,13,04,52,9.50
2013,07,13,04,53,9.50
2013,07,13,04,54,9.50
2013,07,13,04,55,9.50
2013,07,13,04,56,9.50
2013,07,13,04,57,9.40
2013,07,13,04,58,9.40
2013,07,13,04,59,9.40
2013,07,13,05,00,9.40
2013,07,13,05,01,9.40
2013,07,13,05,02,9.40
2013,07,13,05,03,9.40
2013,07,13,05,04,9.40
2013,07,13,05,05,9.40
2013,07,13,05,06,9.40
2013,07,13,05,07,9.40
2013,07,13,05,08,9.40
2013,07,13,05,09,9.40
2013,07,13,05,10,9.40
2013,07,13,05,11,9.40
2013,07,13,05,12,9.40
2013,07,13,05,13,9.40
2013,07,13,05,14,9.40
2013,07,13,05,15,9.40
2013,07,13,05,16,9.40
2013,07,13,05,17,9.40
2013,07,13,05,18,9.40
2013,07,13,05,19,9.40
2013,07,13,05,20,9.40
2013,07,13,05,21,9.40
2013,07,13,05,22,9.40
2013,07,13,05,23,9.40
2013,07,13,05,24,9.40
2013,07,13,05,25,9.40
2013,07,13,05,26,9.50
2013,07,13,05,27,9.50
2013,07,13,05,28,9.50
2013,07,13,05,29,9.50
2013,07,13,05,30,9.50
2013,07,13,05,31,9.50
2013,07,13,05,32,9.50
2013,07,13,05,33,9.50
2013,07,13,05,34,9.50
2013,07,13,05,35,9.50
2013,07,13,05,36,9.50
2013,07,13,05,37,9.50
2013,07,13,05,38,9.50
2013,07,13,05,39,9.50
2013,07,13,05,40,9.50
2013,07,13,05,41,9.50
2013,07,13,05,42,9.50
2013,07,13,05,43,9.50
2013,07,13,05,44,9.50
2013,07,13,05,45,9.50
2013,07,13,05,46,9.50
2013,07,13,05,47,9.50
2013,07,13,05,48,9.50
2013,07,13,05,49,9.50
2013,07,13,05,50,9.50
2013,07,13,05,51,9.50
2013,07,13,05,52,9.60
2013,07,13,05,53,9.60
2013,07,13,05,54,9.60
2013,07,13,05,55,9.60
2013,07,13,05,56,9.60
2013,07,13,05,57,9.60
2013,07,13,05,58,9.60
2013,07,13,05,59,9.60
2013,07,13,06,00,9.60
2013,07,13,06,01,9.60
2013,07,13,06,02,9.60
2013,07,13,06,03,9.60
2013,07,13,06,04,9.70
2013,07,13,06,05,9.70
2013,07,13,06,06,9.70
2013,07,13,06,07,9.70
2013,07,13,06,08,9.70
2013,07,13,06,09,9.70
2013,07,13,06,10,9.70
2013,07,13,06,11,9.70
2013,07,13,06,12,9.70
2013,07,13,06,13,9.70
2013,07,13,06,14,9.80
2013,07,13,06,15,9.80
2013,07,13,06,16,9.80
2013,07,13,06,17,9.80
2013,07,13,06,18,9.80
2013,07,13,06,19,9.80
2013,07,13,06,20,9.80
2013,07,13,06,21,9.90
2013,07,13,06,22,9.90
2013,07,13,06,23,9.90
2013,07,13,06,24,9.90
2013,07,13,06,25,9.90
2013,07,13,06,26,10.00
2013,07,13,06,27,10.00
2013,07,13,06,28,10.00
2013,07,13,06,29,10.00
2013,07,13,06,30,10.10
2013,07,13,06,31,10.10
2013,07,13,06,32,10.10
2013,07,13,06,33,10.10
2013,07,13,06,34,10.10
2013,07,13,06,35,10.10
2013,07,13,06,36,10.10
2013,07,13,06,37,10.20
2013,07,13,06,38,10.20
2013,07,13,06,39,10.20
2013,07,13,06,40,10.20
2013,07,13,06,41,10.20
2013,07,13,06,42,10.20
2013,07,13,06,43,10.20
2013,07,13,06,44,10.20
2013,07,13,06,45,10.20
2013,07,13,06,46,10.20
2013,07,13,06,47,10.30
2013,07,13,06,48,10.30
2013,07,13,06,49,10.30
2013,07,13,06,50,10.30
2013,07,13,06,51,10.30
2013,07,13,06,52,10.30
2013,07,13,06,53,10.30
2013,07,13,06,54,10.30
2013,07,13,06,55,10.30
2013,07,13,06,56,10.30
2013,07,13,06,57,10.40
2013,07,13,06,58,10.40
2013,07,13,06,59,10.40
2013,07,13,07,00,10.40
2013,07,13,07,01,10.50
2013,07,13,07,02,10.50
2013,07,13,07,03,10.60
2013,07,13,07,04,10.60
2013,07,13,07,05,10.70
2013,07,13,07,06,10.70
2013,07,13,07,07,10.70
2013,07,13,07,08,10.80
2013,07,13,07,09,10.80
2013,07,13,07,10,10.80
2013,07,13,07,11,10.90
2013,07,13,07,12,10.90
2013,07,13,07,13,11.00
2013,07,13,07,14,11.00
2013,07,13,07,15,11.10
2013,07,13,07,16,11.10
2013,07,13,07,17,11.20
2013,07,13,07,18,11.30
2013,07,13,07,19,11.30
2013,07,13,07,20,11.40
2013,07,13,07,21,11.50
2013,07,13,07,22,11.50
2013,07,13,07,23,11.60
2013,07,13,07,24,11.60
2013,07,13,07,25,11.60
2013,07,13,07,26,11.70
2013,07,13,07,27,11.70
2013,07,13,07,28,11.70
2013,07,13,07,29,11.80
2013,07,13,07,30,11.80
2013,07,13,07,31,11.80
2013,07,13,07,32,11.80
2013,07,13,07,33,11.90
2013,07,13,07,34,11.90
2013,07,13,07,35,11.90
2013,07,13,07,36,11.90
2013,07,13,07,37,12.00
2013,07,13,07,38,12.00
2013,07,13,07,39,12.10
2013,07,13,07,40,12.10
2013,07,13,07,41,12.10
2013,07,13,07,42,12.10
2013,07,13,07,43,12.20
2013,07,13,07,44,12.20
2013,07,13,07,45,12.20
2013,07,13,07,46,12.20
2013,07,13,07,47,12.20
2013,07,13,07,48,12.30
2013,07,13,07,49,12.30
2013,07,13,07,50,12.30
2013,07,13,07,51,12.30
2013,07,13,07,52,12.30
2013,07,13,07,53,12.30
2013,07,13,07,54,12.40
2013,07,13,07,55,12.40
2013,07,13,07,56,12.40
2013,07,13,07,57,12.40
2013,07,13,07,58,12.50
2013,07,13,07,59,12.50
2013,07,13,08,00,12.60
2013,07,13,08,01,12.60
2013,07,13,08,02,12.70
2013,07,13,08,03,12.70
2013,07,13,08,04,12.80
2013,07,13,08,05,12.80
2013,07,13,08,06,12.80
2013,07,13,08,07,12.80
2013,07,13,08,08,12.90
2013,07,13,08,09,12.90
2013,07,13,08,10,12.90
2013,07,13,08,11,12.90
2013,07,13,08,12,13.00
2013,07,13,08,13,13.00
2013,07,13,08,14,13.00
2013,07,13,08,15,13.10
2013,07,13,08,16,13.10
2013,07,13,08,17,13.10
2013,07,13,08,18,13.10
2013,07,13,08,19,13.10
2013,07,13,08,20,13.10
2013,07,13,08,21,13.10
2013,07,13,08,22,13.20
2013,07,13,08,23,13.20
2013,07,13,08,24,13.20
2013,07,13,08,25,13.20
2013,07,13,08,26,13.30
2013,07,13,08,27,13.30
2013,07,13,08,28,13.30
2013,07,13,08,29,13.30
2013,07,13,08,30,13.30
2013,07,13,08,31,13.30
2013,07,13,08,32,13.30
2013,07,13,08,33,13.30
2013,07,13,08,34,13.40
2013,07,13,08,35,13.40
2013,07,13,08,36,13.40
2013,07,13,08,37,13.50
2013,07,13,08,38,13.50
2013,07,13,08,39,13.50
2013,07,13,08,40,13.50
2013,07,13,08,41,13.50
2013,07,13,08,42,13.60
2013,07,13,08,43,13.60
2013,07,13,08,44,13.60
2013,07,13,08,45,13.60
2013,07,13,08,46,13.70
2013,07,13,08,47,13.80
2013,07,13,08,48,13.80
2013,07,13,08,49,13.80
2013,07,13,08,50,13.80
2013,07,13,08,51,13.90
2013,07,13,08,52,13.90
2013,07,13,08,53,13.90
2013,07,13,08,54,13.90
2013,07,13,08,55,14.00
2013,07,13,08,56,14.00
2013,07,13,08,57,14.10
2013,07,13,08,58,14.10
2013,07,13,08,59,14.20
2013,07,13,09,00,14.20
2013,07,13,09,01,14.30
2013,07,13,09,02,14.40
2013,07,13,09,03,14.50
2013,07,13,09,04,14.50
2013,07,13,09,05,14.60
2013,07,13,09,06,14.60
2013,07,13,09,07,14.70
2013,07,13,09,08,14.70
2013,07,13,09,09,14.70
2013,07,13,09,10,14.70
2013,07,13,09,11,14.70
2013,07,13,09,12,14.70
2013,07,13,09,13,14.80
2013,07,13,09,14,14.80
2013,07,13,09,15,14.80
2013,07,13,09,16,14.80
2013,07,13,09,17,14.90
2013,07,13,09,18,14.90
2013,07,13,09,19,14.90
2013,07,13,09,20,14.90
2013,07,13,09,21,14.90
2013,07,13,09,22,14.90
2013,07,13,09,23,14.90
2013,07,13,09,24,15.00
2013,07,13,09,25,15.00
2013,07,13,09,26,15.00
2013,07,13,09,27,15.00
2013,07,13,09,28,15.10
2013,07,13,09,29,15.10
2013,07,13,09,30,15.20
2013,07,13,09,31,15.20
2013,07,13,09,32,15.20
2013,07,13,09,33,15.20
2013,07,13,09,34,15.30
2013,07,13,09,35,15.30
2013,07,13,09,36,15.30
2013,07,13,09,37,15.30
2013,07,13,09,38,15.40
2013,07,13,09,39,15.40
2013,07,13,09,40,15.50
2013,07,13,09,41,15.50
2013,07,13,09,42,15.60
2013,07,13,09,43,15.70
2013,07,13,09,44,15.80
2013,07,13,09,45,15.90
2013,07,13,09,46,15.90
2013,07,13,09,47,15.90
2013,07,13,09,48,16.00
2013,07,13,09,49,16.10
2013,07,13,09,50,16.10
2013,07,13,09,51,16.20
2013,07,13,09,52,16.20
2013,07,13,09,53,16.20
2013,07,13,09,54,16.20
2013,07,13,09,55,16.20
2013,07,13,09,56,16.20
2013,07,13,09,57,16.30
2013,07,13,09,58,16.30
2013,07,13,09,59,16.40
2013,07,13,10,00,16.40
2013,07,13,10,01,16.40
2013,07,13,10,02,16.50
2013,07,13,10,03,16.60
2013,07,13,10,04,16.60
2013,07,13,10,05,16.70
2013,07,13,10,06,16.70
2013,07,13,10,07,16.70
2013,07,13,10,08,16.80
2013,07,13,10,09,16.80
2013,07,13,10,10,16.80
2013,07,13,10,11,16.70
2013,07,13,10,12,16.70
2013,07,13,10,13,16.80
2013,07,13,10,14,16.80
2013,07,13,10,15,16.80
2013,07,13,10,16,16.90
2013,07,13,10,17,17.00
2013,07,13,10,18,17.00
2013,07,13,10,19,17.10
2013,07,13,10,20,17.10
2013,07,13,10,21,17.10
2013,07,13,10,22,17.20
2013,07,13,10,23,17.20
2013,07,13,10,24,17.20
2013,07,13,10,25,17.20
2013,07,13,10,26,17.20
2013,07,13,10,27,17.10
2013,07,13,10,28,17.10
2013,07,13,10,29,17.10
2013,07,13,10,30,17.20
2013,07,13,10,31,17.20
2013,07,13,10,32,17.20
2013,07,13,10,33,17.20
2013,07,13,10,34,17.10
2013,07,13,10,35,17.10
2013,07,13,10,36,17.10
2013,07,13,10,37,17.10
2013,07,13,10,38,17.20
2013,07,13,10,39,17.20
2013,07,13,10,40,17.30
2013,07,13,10,41,17.40
2013,07,13,10,42,17.50
2013,07,13,10,43,17.60
2013,07,13,10,44,17.70
2013,07,13,10,45,17.80
2013,07,13,10,46,17.90
2013,07,13,10,47,18.00
2013,07,13,10,48,18.00
2013,07,13,10,49,18.00
2013,07,13,10,50,18.00
2013,07,13,10,51,18.00
2013,07,13,10,52,17.90
2013,07,13,10,53,17.90
2013,07,13,10,54,17.90
2013,07,13,10,55,17.80
2013,07,13,10,56,17.80
2013,07,13,10,57,17.80
2013,07,13,10,58,17.80
2013,07,13,10,59,17.80
2013,07,13,11,00,17.80
2013,07,13,11,01,17.80
2013,07,13,11,02,17.80
2013,07,13,11,03,17.90
2013,07,13,11,04,18.00
2013,07,13,11,05,18.10
2013,07,13,11,06,18.20
2013,07,13,11,07,18.20
2013,07,13,11,08,18.30
2013,07,13,11,09,18.40
2013,07,13,11,10,18.40
2013,07,13,11,11,18.60
2013,07,13,11,12,18.70
2013,07,13,11,13,18.80
2013,07,13,11,14,18.90
2013,07,13,11,15,18.90
2013,07,13,11,16,19.00
2013,07,13,11,17,19.00
2013,07,13,11,18,19.00
2013,07,13,11,19,19.10
2013,07,13,11,20,19.10
2013,07,13,11,21,19.10
2013,07,13,11,22,19.20
2013,07,13,11,23,19.20
2013,07,13,11,24,19.30
2013,07,13,11,25,19.30
2013,07,13,11,26,19.30
2013,07,13,11,27,19.40
2013,07,13,11,28,19.40
2013,07,13,11,29,19.40
2013,07,13,11,30,19.50
2013,07,13,11,31,19.50
2013,07,13,11,32,19.70
2013,07,13,11,33,19.80
2013,07,13,11,34,19.80
2013,07,13,11,35,19.90
2013,07,13,11,36,19.90
2013,07,13,11,37,20.00
2013,07,13,11,38,20.00
2013,07,13,11,39,20.10
2013,07,13,11,40,20.10
2013,07,13,11,41,20.20
2013,07,13,11,42,20.20
2013,07,13,11,43,20.20
2013,07,13,11,44,20.20
2013,07,13,11,45,20.20
2013,07,13,11,46,20.20
2013,07,13,11,47,20.30
2013,07,13,11,48,20.30
2013,07,13,11,49,20.30
2013,07,13,11,50,20.40
2013,07,13,11,51,20.40
2013,07,13,11,52,20.40
2013,07,13,11,53,20.40
2013,07,13,11,54,20.40
2013,07,13,11,55,20.50
2013,07,13,11,56,20.60
2013,07,13,11,57,20.60
2013,07,13,11,58,20.70
2013,07,13,11,59,20.80
2013,07,13,12,00,20.90
2013,07,13,12,01,21.00
2013,07,13,12,02,21.00
2013,07,13,12,03,21.10
2013,07,13,12,04,21.10
2013,07,13,12,05,21.20
2013,07,13,12,06,21.30
2013,07,13,12,07,21.30
2013,07,13,12,08,21.30
2013,07,13,12,09,21.30
2013,07,13,12,10,21.30
2013,07,13,12,11,21.30
2013,07,13,12,12,21.30
2013,07,13,12,13,21.30
2013,07,13,12,14,21.40
2013,07,13,12,15,21.40
2013,07,13,12,16,21.40
2013,07,13,12,17,21.50
2013,07,13,12,18,21.60
2013,07,13,12,19,21.60
2013,07,13,12,20,21.60
2013,07,13,12,21,21.60
2013,07,13,12,22,21.50
2013,07,13,12,23,21.40
2013,07,13,12,24,21.40
2013,07,13,12,25,21.40
2013,07,13,12,26,21.40
2013,07,13,12,27,21.50
2013,07,13,12,28,21.60
2013,07,13,12,29,21.70
2013,07,13,12,30,21.70
2013,07,13,12,31,21.70
2013,07,13,12,32,21.80
2013,07,13,12,33,21.80
2013,07,13,12,34,21.90
2013,07,13,12,35,22.00
2013,07,13,12,36,22.00
2013,07,13,12,37,22.00
2013,07,13,12,38,22.00
2013,07,13,12,39,22.10
2013,07,13,12,40,22.10
2013,07,13,12,41,22.20
2013,07,13,12,42,22.20
2013,07,13,12,43,22.20
2013,07,13,12,44,22.20
2013,07,13,12,45,22.20
2013,07,13,12,46,22.10
2013,07,13,12,47,22.10
2013,07,13,12,48,22.10
2013,07,13,12,49,22.20
2013,07,13,12,50,22.20
2013,07,13,12,51,22.20
2013,07,13,12,52,22.20
2013,07,13,12,53,22.20
2013,07,13,12,54,22.10
2013,07,13,12,55,22.10
2013,07,13,12,56,22.10
2013,07,13,12,57,22.10
2013,07,13,12,58,22.10
2013,07,13,12,59,22.10
2013,07,13,13,00,22.20
2013,07,13,13,01,22.30
2013,07,13,13,02,22.30
2013,07,13,13,03,22.30
2013,07,13,13,04,22.30
2013,07,13,13,05,22.40
2013,07,13,13,06,22.50
2013,07,13,13,07,22.50
2013,07,13,13,08,22.50
2013,07,13,13,09,22.50
2013,07,13,13,10,22.60
2013,07,13,13,11,22.60
2013,07,13,13,12,22.70
2013,07,13,13,13,22.80
2013,07,13,13,14,22.80
2013,07,13,13,15,22.90
2013,07,13,13,16,22.90
2013,07,13,13,17,22.90
2013,07,13,13,18,23.00
2013,07,13,13,19,23.00
2013,07,13,13,20,23.10
2013,07,13,13,21,23.20
2013,07,13,13,22,23.30
2013,07,13,13,23,23.40
2013,07,13,13,24,23.50
2013,07,13,13,25,23.60
2013,07,13,13,26,23.60
2013,07,13,13,27,23.60
2013,07,13,13,28,23.60
2013,07,13,13,29,23.60
2013,07,13,13,30,23.60
2013,07,13,13,31,23.70
2013,07,13,13,32,23.80
2013,07,13,13,33,23.90
2013,07,13,13,34,24.00
2013,07,13,13,35,24.00
2013,07,13,13,36,24.00
2013,07,13,13,37,24.00
2013,07,13,13,38,23.90
2013,07,13,13,39,23.90
2013,07,13,13,40,23.90
2013,07,13,13,41,23.90
2013,07,13,13,42,23.90
2013,07,13,13,43,23.90
2013,07,13,13,44,23.90
2013,07,13,13,45,24.00
2013,07,13,13,46,24.00
2013,07,13,13,47,23.90
2013,07,13,13,48,23.90
2013,07,13,13,49,23.90
2013,07,13,13,50,23.90
2013,07,13,13,51,24.00
2013,07,13,13,52,24.10
2013,07,13,13,53,24.00
2013,07,13,13,54,23.90
2013,07,13,13,55,23.90
2013,07,13,13,56,23.90
2013,07,13,13,57,24.00
2013,07,13,13,58,24.10
2013,07,13,13,59,24.20
2013,07,13,14,00,24.30
2013,07,13,14,01,24.30
2013,07,13,14,02,24.20
2013,07,13,14,03,24.10
2013,07,13,14,04,24.00
2013,07,13,14,05,24.00
2013,07,13,14,06,24.00
2013,07,13,14,07,24.00
2013,07,13,14,08,24.00
2013,07,13,14,09,24.00
2013,07,13,14,10,23.90
2013,07,13,14,11,23.90
2013,07,13,14,12,23.90
2013,07,13,14,13,23.90
2013,07,13,14,14,24.00
2013,07,13,14,15,24.00
2013,07,13,14,16,24.10
2013,07,13,14,17,24.10
2013,07,13,14,18,24.20
2013,07,13,14,19,24.30
2013,07,13,14,20,24.30
2013,07,13,14,21,24.40
2013,07,13,14,22,24.30
2013,07,13,14,23,24.30
2013,07,13,14,24,24.20
2013,07,13,14,25,24.20
2013,07,13,14,26,24.20
2013,07,13,14,27,24.20
2013,07,13,14,28,24.30
2013,07,13,14,29,24.30
2013,07,13,14,30,24.30
2013,07,13,14,31,24.20
2013,07,13,14,32,24.20
2013,07,13,14,33,24.20
2013,07,13,14,34,24.20
2013,07,13,14,35,24.30
2013,07,13,14,36,24.30
2013,07,13,14,37,24.30
2013,07,13,14,38,24.30
2013,07,13,14,39,24.30
2013,07,13,14,40,24.40
2013,07,13,14,41,24.50
2013,07,13,14,42,24.50
2013,07,13,14,43,24.60
2013,07,13,14,44,24.60
2013,07,13,14,45,24.60
2013,07,13,14,46,24.60
2013,07,13,14,47,24.70
2013,07,13,14,48,24.70
2013,07,13,14,49,24.80
2013,07,13,14,50,24.90
2013,07,13,14,51,25.10
2013,07,13,14,52,25.20
2013,07,13,14,53,25.30
2013,07,13,14,54,25.30
2013,07,13,14,55,25.30
2013,07,13,14,56,25.20
2013,07,13,14,57,25.10
2013,07,13,14,58,24.90
2013,07,13,14,59,24.80
2013,07,13,15,00,24.70
2013,07,13,15,01,24.70
2013,07,13,15,02,24.70
2013,07,13,15,03,24.80
2013,07,13,15,04,24.80
2013,07,13,15,05,24.90
2013,07,13,15,06,25.00
2013,07,13,15,07,25.00
2013,07,13,15,08,25.10
2013,07,13,15,09,25.10
2013,07,13,15,10,25.10
2013,07,13,15,11,25.10
2013,07,13,15,12,25.10
2013,07,13,15,13,25.10
2013,07,13,15,14,25.10
2013,07,13,15,15,25.20
2013,07,13,15,16,25.20
2013,07,13,15,17,25.20
2013,07,13,15,18,25.40
2013,07,13,15,19,25.50
2013,07,13,15,20,25.60
2013,07,13,15,21,25.70
2013,07,13,15,22,25.70
2013,07,13,15,23,25.60
2013,07,13,15,24,25.50
2013,07,13,15,25,25.50
2013,07,13,15,26,25.40
2013,07,13,15,27,25.40
2013,07,13,15,28,25.40
2013,07,13,15,29,25.40
2013,07,13,15,30,25.40
2013,07,13,15,31,25.50
2013,07,13,15,32,25.50
2013,07,13,15,33,25.60
2013,07,13,15,34,25.60
2013,07,13,15,35,25.60
2013,07,13,15,36,25.50
2013,07,13,15,37,25.40
2013,07,13,15,38,25.30
2013,07,13,15,39,25.30
2013,07,13,15,40,25.30
2013,07,13,15,41,25.30
2013,07,13,15,42,25.30
2013,07,13,15,43,25.40
2013,07,13,15,44,25.40
2013,07,13,15,45,25.40
2013,07,13,15,46,25.30
2013,07,13,15,47,25.20
2013,07,13,15,48,25.20
2013,07,13,15,49,25.20
2013,07,13,15,50,25.10
2013,07,13,15,51,25.10
2013,07,13,15,52,25.10
2013,07,13,15,53,25.00
2013,07,13,15,54,24.90
2013,07,13,15,55,24.90
2013,07,13,15,56,25.00
2013,07,13,15,57,25.10
2013,07,13,15,58,25.20
2013,07,13,15,59,25.20
2013,07,13,16,00,25.30
2013,07,13,16,01,25.30
2013,07,13,16,02,25.40
2013,07,13,16,03,25.40
2013,07,13,16,04,25.30
2013,07,13,16,05,25.30
2013,07,13,16,06,25.30
2013,07,13,16,07,25.20
2013,07,13,16,08,25.20
2013,07,13,16,09,25.20
2013,07,13,16,10,25.20
2013,07,13,16,11,25.20
2013,07,13,16,12,25.20
2013,07,13,16,13,25.20
2013,07,13,16,14,25.20
2013,07,13,16,15,25.20
2013,07,13,16,16,25.20
2013,07,13,16,17,25.20
2013,07,13,16,18,25.20
2013,07,13,16,19,25.20
2013,07,13,16,20,25.20
2013,07,13,16,21,25.10
2013,07,13,16,22,25.10
2013,07,13,16,23,25.10
2013,07,13,16,24,25.20
2013,07,13,16,25,25.20
2013,07,13,16,26,25.20
2013,07,13,16,27,25.20
2013,07,13,16,28,25.10
2013,07,13,16,29,25.10
2013,07,13,16,30,25.10
2013,07,13,16,31,25.10
2013,07,13,16,32,25.10
2013,07,13,16,33,25.20
2013,07,13,16,34,25.20
2013,07,13,16,35,25.20
2013,07,13,16,36,25.10
2013,07,13,16,37,25.10
2013,07,13,16,38,25.00
2013,07,13,16,39,24.90
2013,07,13,16,40,24.90
2013,07,13,16,41,24.90
2013,07,13,16,42,24.90
2013,07,13,16,43,25.00
2013,07,13,16,44,25.00
2013,07,13,16,45,25.10
2013,07,13,16,46,25.10
2013,07,13,16,47,25.10
2013,07,13,16,48,25.00
2013,07,13,16,49,25.00
2013,07,13,16,50,25.00
2013,07,13,16,51,24.90
2013,07,13,16,52,24.90
2013,07,13,16,53,24.90
2013,07,13,16,54,24.90
2013,07,13,16,55,24.90
2013,07,13,16,56,24.90
2013,07,13,16,57,24.90
2013,07,13,16,58,24.90
2013,07,13,16,59,24.90
2013,07,13,17,00,24.80
2013,07,13,17,01,24.80
2013,07,13,17,02,24.80
2013,07,13,17,03,24.90
2013,07,13,17,04,24.90
2013,07,13,17,05,24.90
2013,07,13,17,06,24.80
2013,07,13,17,07,24.80
2013,07,13,17,08,24.80
2013,07,13,17,09,24.80
2013,07,13,17,10,24.80
2013,07,13,17,11,24.80
2013,07,13,17,12,24.90
2013,07,13,17,13,24.90
2013,07,13,17,14,24.90
2013,07,13,17,15,25.00
2013,07,13,17,16,25.00
2013,07,13,17,17,25.00
2013,07,13,17,18,25.00
2013,07,13,17,19,25.00
2013,07,13,17,20,24.90
2013,07,13,17,21,24.90
2013,07,13,17,22,24.90
2013,07,13,17,23,24.80
2013,07,13,17,24,24.80